Location: Unspecified
(41.6611°N, 13.0923°E)
Time: 09:22:43
(UTC+02:00)

ISS - Pass Details

Date: 14 August 2016
Orbit: 401 x 409 km, 51.6° (Epoch: 29 April)

Event Time Altitude Azimuth Distance (km) Brightness Sun altitude
Rises 20:31:55 0° 305° (NW) 2,384 2.2 -4.9°
Reaches altitude 10° 20:34:02 10° 307° (NW) 1,512 0.7 -5.3°
Maximum altitude 20:37:26 77° 34° (NE) 435 -3.7 -5.9°
Drops below altitude 10° 20:40:47 10° 121° (ESE) 1,489 -1.6 -6.4°
Enters shadow 20:41:06 - 121° (ESE) 1,616 -1.5 -6.5°
